Location: Eyeline Observatory
(43.2182°N, 78.8632°W)
Time: 11:21:00
(UTC-04:00)

Vanguard 2 - Pass Details

Date: 25 January 2018
Orbit: 552 x 2940 km, 32.9° (Epoch: 22 May)

Event Time Altitude Azimuth Distance (km) Brightness Sun altitude
Rises 07:09:21 0° 269° (W) 4,715 - -5.6°
Exits shadow 07:10:02 - 268° (W) 4,550 10.9 -5.5°
Reaches altitude 10° 07:12:22 10° 261° (W) 4,032 10.7 -5.1°
Maximum altitude 07:22:26 37° 200° (SSW) 3,215 10.7 -3.4°
Drops below altitude 10° 07:36:36 10° 142° (SE) 5,629 13.2 -1.0°
Sets 07:41:48 0° 135° (SE) 6,760 14.1 -0.2°
